TVS2782 LKPR-DTTJ

Flight info

Callsign TVS2782
Flight time 2h 33m
Altitude 35000
Route DCT VOZ DCT PISAM DCT PETOV DCT SENTI DCT RALAK P623 JBA DCT
Aircraft B738/M-SDE3FGHIJ1RWXYZ/LB1

Departure

Time 2026-04-25 12:02
Airport Václav Havel Airport Prague (LKPR)

Arrival

Time 2026-04-25 14:36
Airport Djerba Zarzis International Airport (DTTJ)
Time Latitude Longitude Altitude Speed Heading
2026-04-25 11:02 50.11057 14.26755 1173 ft 0 kts 64°
2026-04-25 11:44 50.11055 14.26747 1173 ft 2 kts 64°
2026-04-25 11:45 50.11046 14.26720 1170 ft 3 kts 59°
2026-04-25 11:45 50.11035 14.26696 1169 ft 3 kts 35°
2026-04-25 11:45 50.11023 14.26686 1168 ft 2 kts 336°
2026-04-25 11:45 50.11019 14.26688 1171 ft 1 kts 328°
2026-04-25 11:46 50.11031 14.26676 1168 ft 2 kts 328°
2026-04-25 11:46 50.11034 14.26673 1168 ft 1 kts 328°
2026-04-25 11:51 50.11048 14.26660 1173 ft 4 kts 327°
2026-04-25 11:51 50.11068 14.26623 1171 ft 5 kts 298°
2026-04-25 11:51 50.11066 14.26553 1172 ft 9 kts 244°
2026-04-25 11:52 50.11022 14.26487 1172 ft 9 kts 215°
2026-04-25 11:52 50.10971 14.26433 1170 ft 9 kts 214°
2026-04-25 11:52 50.10914 14.26374 1170 ft 10 kts 214°
2026-04-25 11:52 50.10858 14.26314 1170 ft 10 kts 214°
2026-04-25 11:53 50.10803 14.26255 1169 ft 9 kts 216°
2026-04-25 11:53 50.10750 14.26197 1171 ft 10 kts 214°
2026-04-25 11:53 50.10677 14.26120 1171 ft 13 kts 214°
2026-04-25 11:53 50.10601 14.26044 1168 ft 13 kts 210°
2026-04-25 11:54 50.10524 14.25980 1172 ft 13 kts 186°
2026-04-25 11:54 50.10465 14.26047 1175 ft 11 kts 127°
2026-04-25 11:54 50.10347 14.26293 1173 ft 22 kts 127°
2026-04-25 11:55 50.10231 14.26532 1172 ft 32 kts 127°
2026-04-25 11:55 50.10105 14.26793 1183 ft 27 kts 127°
2026-04-25 11:55 50.09996 14.27018 1195 ft 26 kts 126°
2026-04-25 11:55 50.09892 14.27235 1201 ft 24 kts 126°
2026-04-25 11:56 50.09784 14.27416 1204 ft 23 kts 136°
2026-04-25 11:56 50.09674 14.27587 1206 ft 22 kts 135°
2026-04-25 11:56 50.09566 14.27752 1210 ft 21 kts 136°
2026-04-25 11:56 50.09462 14.27914 1214 ft 21 kts 135°
2026-04-25 11:57 50.09385 14.28033 1213 ft 6 kts 135°
2026-04-25 11:57 50.09356 14.28077 1213 ft 6 kts 135°
2026-04-25 11:57 50.09327 14.28122 1214 ft 7 kts 136°
2026-04-25 11:57 50.09286 14.28182 1213 ft 9 kts 135°
2026-04-25 11:58 50.09232 14.28260 1211 ft 12 kts 146°
2026-04-25 11:58 50.09148 14.28264 1210 ft 10 kts 211°
2026-04-25 11:58 50.09145 14.28261 1210 ft 0 kts 214°
2026-04-25 11:59 50.09142 14.28259 1210 ft 1 kts 214°
2026-04-25 11:59 50.09132 14.28247 1210 ft 4 kts 214°
2026-04-25 12:00 50.09068 14.28124 1207 ft 9 kts 290°
2026-04-25 12:00 50.09084 14.28085 1207 ft 0 kts 306°
2026-04-25 12:00 50.09088 14.28077 1207 ft 5 kts 306°
2026-04-25 12:01 50.09141 14.27969 1210 ft 23 kts 308°
2026-04-25 12:01 50.09330 14.27575 1210 ft 77 kts 307°
2026-04-25 12:01 50.09787 14.26630 1204 ft 139 kts 307°
2026-04-25 12:01 50.10456 14.25201 1364 ft 178 kts 304°
2026-04-25 12:02 50.12059 14.21961 2809 ft 193 kts 307°
2026-04-25 12:02 50.12876 14.20331 3658 ft 186 kts 306°
2026-04-25 12:02 50.13634 14.18756 4562 ft 176 kts 304°
2026-04-25 12:03 50.14312 14.17228 5300 ft 171 kts 305°
2026-04-25 12:03 50.14811 14.16226 5655 ft 180 kts 309°
2026-04-25 12:03 50.15615 14.14717 6465 ft 178 kts 308°
2026-04-25 12:03 50.16402 14.13220 7166 ft 184 kts 309°
2026-04-25 12:04 50.17239 14.11676 7660 ft 190 kts 308°
2026-04-25 12:04 50.18080 14.09909 7842 ft 215 kts 303°
2026-04-25 12:04 50.18606 14.07632 8120 ft 237 kts 275°
2026-04-25 12:04 50.17999 14.04153 8700 ft 271 kts 236°
2026-04-25 12:05 50.17098 14.02711 9196 ft 278 kts 224°
2026-04-25 12:05 50.15541 14.00872 10003 ft 283 kts 219°
2026-04-25 12:05 50.13873 13.99119 10493 ft 302 kts 210°
2026-04-25 12:05 50.11729 13.98300 10663 ft 338 kts 182°
2026-04-25 12:06 50.09349 13.99155 10961 ft 364 kts 159°
2026-04-25 12:06 50.07044 14.00777 11592 ft 372 kts 157°
2026-04-25 12:06 50.04664 14.02537 12344 ft 376 kts 157°
2026-04-25 12:06 50.02291 14.04283 13076 ft 380 kts 158°
2026-04-25 12:07 49.99909 14.05999 13832 ft 384 kts 158°
2026-04-25 12:07 49.97470 14.07723 14520 ft 388 kts 159°
2026-04-25 12:07 49.94998 14.09451 15180 ft 391 kts 159°
2026-04-25 12:07 49.92493 14.11193 15841 ft 395 kts 159°
2026-04-25 12:08 49.89969 14.12942 16479 ft 399 kts 159°
2026-04-25 12:08 49.87417 14.14717 17087 ft 404 kts 157°
2026-04-25 12:08 49.85059 14.17155 17666 ft 415 kts 137°
2026-04-25 12:08 49.83208 14.20620 18303 ft 420 kts 128°
2026-04-25 12:09 49.81457 14.24282 18789 ft 426 kts 128°
2026-04-25 12:09 49.79697 14.27990 19265 ft 431 kts 128°
2026-04-25 12:09 49.77905 14.31735 19766 ft 435 kts 128°
2026-04-25 12:09 49.76083 14.35500 20273 ft 439 kts 129°
2026-04-25 12:10 49.74236 14.39284 20795 ft 442 kts 129°
2026-04-25 12:10 49.72361 14.43102 21284 ft 446 kts 129°
2026-04-25 12:10 49.70473 14.46938 21752 ft 451 kts 130°
2026-04-25 12:10 49.68567 14.50806 22223 ft 455 kts 130°
2026-04-25 12:11 49.66642 14.54713 22667 ft 459 kts 129°
2026-04-25 12:11 49.64840 14.58746 23115 ft 465 kts 125°
2026-04-25 12:11 49.63122 14.63000 23545 ft 469 kts 123°
2026-04-25 12:11 49.61428 14.67320 23959 ft 472 kts 123°
2026-04-25 12:12 49.59712 14.71655 24371 ft 474 kts 124°
2026-04-25 12:12 49.57968 14.75973 24771 ft 475 kts 125°
2026-04-25 12:12 49.56194 14.80295 25169 ft 477 kts 125°
2026-04-25 12:12 49.54388 14.84596 25548 ft 479 kts 129°
2026-04-25 12:13 49.52117 14.88301 25884 ft 473 kts 147°
2026-04-25 12:13 49.49343 14.90908 26283 ft 466 kts 158°
2026-04-25 12:13 49.46454 14.93198 26664 ft 468 kts 158°
2026-04-25 12:13 49.43543 14.95466 27018 ft 470 kts 158°
2026-04-25 12:14 49.40660 14.97720 27354 ft 472 kts 158°
2026-04-25 12:14 49.37725 15.00039 27683 ft 475 kts 158°
2026-04-25 12:14 49.34785 15.02386 28021 ft 477 kts 158°
2026-04-25 12:14 49.31836 15.04754 28356 ft 479 kts 158°
2026-04-25 12:15 49.28886 15.07129 28694 ft 481 kts 158°
2026-04-25 12:15 49.25917 15.09520 29000 ft 483 kts 158°
2026-04-25 12:15 49.22931 15.11921 29331 ft 484 kts 158°
2026-04-25 12:15 49.19941 15.14321 29679 ft 485 kts 158°
2026-04-25 12:16 49.16961 15.16711 30162 ft 482 kts 158°
2026-04-25 12:16 49.14001 15.19081 30586 ft 480 kts 158°
2026-04-25 12:16 49.11046 15.21442 30973 ft 478 kts 158°
2026-04-25 12:16 49.08099 15.23790 31277 ft 478 kts 158°
2026-04-25 12:17 49.05144 15.26142 31576 ft 479 kts 158°
2026-04-25 12:17 49.02193 15.28488 31917 ft 478 kts 158°
2026-04-25 12:17 48.99286 15.30797 32267 ft 476 kts 158°
2026-04-25 12:17 48.96356 15.33122 32613 ft 475 kts 158°
2026-04-25 12:18 48.93420 15.35448 32928 ft 475 kts 158°
2026-04-25 12:18 48.90462 15.37654 33243 ft 470 kts 163°
2026-04-25 12:18 48.87390 15.39245 33529 ft 462 kts 173°
2026-04-25 12:18 48.84251 15.40112 33820 ft 457 kts 178°
2026-04-25 12:19 48.79030 15.41283 34315 ft 455 kts 178°
2026-04-25 12:19 48.74834 15.42219 34579 ft 456 kts 178°
2026-04-25 12:19 48.71692 15.42935 34806 ft 456 kts 177°
2026-04-25 12:20 48.68594 15.43654 35023 ft 456 kts 177°
2026-04-25 12:20 48.62276 15.45140 35023 ft 461 kts 177°
2026-04-25 12:21 48.55965 15.46641 35010 ft 456 kts 177°
2026-04-25 12:21 48.49715 15.48124 35016 ft 454 kts 177°
2026-04-25 12:22 48.43479 15.49594 35015 ft 453 kts 177°
2026-04-25 12:22 48.37247 15.51058 35015 ft 453 kts 177°
2026-04-25 12:23 48.31011 15.52519 35017 ft 454 kts 177°
2026-04-25 12:23 48.24770 15.53979 35022 ft 454 kts 177°
2026-04-25 12:24 48.18529 15.55436 35027 ft 455 kts 176°
2026-04-25 12:24 48.12260 15.56895 35044 ft 458 kts 176°
2026-04-25 12:24 48.09107 15.57626 35149 ft 460 kts 176°
2026-04-25 12:25 48.05942 15.58360 35421 ft 458 kts 176°
2026-04-25 12:25 48.02838 15.59082 35712 ft 457 kts 177°
2026-04-25 12:25 47.99697 15.59810 35909 ft 457 kts 176°
2026-04-25 12:25 47.96543 15.60539 36086 ft 459 kts 176°
2026-04-25 12:26 47.93388 15.61268 36310 ft 458 kts 176°
2026-04-25 12:26 47.90234 15.61996 36571 ft 457 kts 176°
2026-04-25 12:26 47.87084 15.62722 36754 ft 458 kts 177°
2026-04-25 12:26 47.83937 15.63446 36907 ft 458 kts 176°
2026-04-25 12:27 47.80791 15.64170 37027 ft 457 kts 176°
2026-04-25 12:27 47.74478 15.65617 37026 ft 459 kts 176°
2026-04-25 12:28 47.68163 15.67063 37030 ft 458 kts 176°
2026-04-25 12:28 47.61895 15.68493 37034 ft 458 kts 176°
2026-04-25 12:29 47.55602 15.69927 37030 ft 457 kts 176°
2026-04-25 12:29 47.49302 15.71358 37005 ft 457 kts 176°
2026-04-25 12:30 47.43016 15.72783 37009 ft 457 kts 176°
2026-04-25 12:30 47.36721 15.74206 37016 ft 457 kts 176°
2026-04-25 12:31 47.30468 15.75616 36993 ft 457 kts 176°
2026-04-25 12:31 47.24180 15.77031 36995 ft 456 kts 176°
2026-04-25 12:32 47.17906 15.78440 36999 ft 455 kts 176°
2026-04-25 12:32 47.11645 15.79842 37003 ft 455 kts 176°
2026-04-25 12:33 47.05409 15.81234 37000 ft 456 kts 176°
2026-04-25 12:33 46.99129 15.82633 36993 ft 456 kts 176°
2026-04-25 12:34 46.92852 15.84029 37006 ft 456 kts 176°
2026-04-25 12:34 46.86574 15.85421 37013 ft 456 kts 176°
2026-04-25 12:35 46.80298 15.86810 37010 ft 457 kts 176°
2026-04-25 12:35 46.74001 15.88201 37007 ft 457 kts 176°
2026-04-25 12:36 46.67706 15.89588 37014 ft 457 kts 176°
2026-04-25 12:36 46.61416 15.90970 37018 ft 457 kts 176°
2026-04-25 12:37 46.55158 15.92342 37023 ft 457 kts 176°
2026-04-25 12:37 46.48859 15.93720 37014 ft 457 kts 176°
2026-04-25 12:38 46.42561 15.95095 37018 ft 457 kts 176°
2026-04-25 12:38 46.36278 15.96463 37020 ft 456 kts 176°
2026-04-25 12:39 46.30075 15.96850 37023 ft 445 kts 191°
2026-04-25 12:39 46.24128 15.94790 37030 ft 436 kts 202°
2026-04-25 12:40 46.18332 15.92187 37009 ft 436 kts 202°
2026-04-25 12:40 46.12526 15.89609 37015 ft 437 kts 201°
2026-04-25 12:41 46.06703 15.87066 37012 ft 437 kts 201°
2026-04-25 12:41 46.00864 15.84539 37004 ft 438 kts 201°
2026-04-25 12:42 45.95056 15.82034 37012 ft 438 kts 201°
2026-04-25 12:42 45.89209 15.79518 37002 ft 439 kts 201°
2026-04-25 12:43 45.83353 15.77002 37006 ft 440 kts 201°
2026-04-25 12:43 45.74554 15.73233 37003 ft 440 kts 200°
2026-04-25 12:44 45.68671 15.70720 37008 ft 441 kts 200°
2026-04-25 12:45 45.59848 15.66960 37017 ft 441 kts 200°
2026-04-25 12:45 45.51022 15.63212 37019 ft 441 kts 200°
2026-04-25 12:46 45.45174 15.60736 37016 ft 441 kts 200°
2026-04-25 12:46 45.39288 15.58248 37015 ft 441 kts 200°
2026-04-25 12:47 45.33400 15.55765 37011 ft 442 kts 200°
2026-04-25 12:47 45.27502 15.53283 37006 ft 442 kts 200°
2026-04-25 12:48 45.21610 15.50810 37007 ft 441 kts 199°
2026-04-25 12:48 45.15712 15.48339 37021 ft 441 kts 199°
2026-04-25 12:49 45.09821 15.45876 37009 ft 441 kts 199°
2026-04-25 12:49 45.03930 15.43418 37027 ft 441 kts 199°
2026-04-25 12:50 44.98031 15.40962 37017 ft 441 kts 199°
2026-04-25 12:50 44.92181 15.38533 37037 ft 441 kts 199°
2026-04-25 12:51 44.86281 15.36087 37026 ft 442 kts 199°
2026-04-25 12:51 44.80379 15.33646 37033 ft 442 kts 199°
2026-04-25 12:52 44.74472 15.31208 37036 ft 443 kts 199°
2026-04-25 12:52 44.68560 15.28773 37036 ft 443 kts 199°
2026-04-25 12:53 44.62638 15.26340 37037 ft 443 kts 199°
2026-04-25 12:53 44.56712 15.23909 37046 ft 443 kts 198°
2026-04-25 12:54 44.50791 15.21486 37037 ft 443 kts 198°
2026-04-25 12:54 44.44865 15.19067 37045 ft 444 kts 198°
2026-04-25 12:55 44.40944 15.17468 37042 ft 444 kts 198°
2026-04-25 12:55 44.33055 15.14259 37055 ft 443 kts 198°
2026-04-25 12:56 44.27138 15.11858 37053 ft 443 kts 198°
2026-04-25 12:56 44.22221 15.09867 37045 ft 443 kts 198°
2026-04-25 12:57 44.16306 15.07476 37050 ft 442 kts 198°
2026-04-25 12:57 44.10392 15.05090 37048 ft 442 kts 198°
2026-04-25 12:58 44.04482 15.02711 37054 ft 442 kts 197°
2026-04-25 12:58 43.98575 15.00338 37052 ft 442 kts 197°
2026-04-25 12:59 43.92666 14.97969 37058 ft 442 kts 197°
2026-04-25 12:59 43.86739 14.95598 37058 ft 443 kts 197°
2026-04-25 13:00 43.81814 14.93632 37060 ft 443 kts 197°
2026-04-25 13:00 43.74915 14.90882 37058 ft 444 kts 197°
2026-04-25 13:01 43.68981 14.88523 37062 ft 444 kts 197°
2026-04-25 13:01 43.63027 14.86161 37060 ft 445 kts 197°
2026-04-25 13:02 43.57081 14.83807 37060 ft 445 kts 197°
2026-04-25 13:02 43.51119 14.81451 37054 ft 446 kts 197°
2026-04-25 13:03 43.45155 14.79099 37058 ft 446 kts 196°
2026-04-25 13:03 43.39188 14.76751 37059 ft 446 kts 196°
2026-04-25 13:04 43.33245 14.74418 37057 ft 447 kts 196°
2026-04-25 13:04 43.27260 14.72072 37058 ft 447 kts 196°
2026-04-25 13:05 43.21282 14.69734 37056 ft 447 kts 196°
2026-04-25 13:05 43.15306 14.67402 37055 ft 447 kts 196°
2026-04-25 13:06 43.09324 14.65071 37058 ft 447 kts 196°
2026-04-25 13:06 43.03343 14.62747 37057 ft 447 kts 196°
2026-04-25 13:07 42.97363 14.60427 37054 ft 447 kts 195°
2026-04-25 13:07 42.91385 14.58112 37049 ft 447 kts 195°
2026-04-25 13:08 42.85445 14.55817 37051 ft 446 kts 195°
2026-04-25 13:08 42.79468 14.53513 37054 ft 446 kts 195°
2026-04-25 13:09 42.73488 14.51211 37053 ft 446 kts 195°
2026-04-25 13:09 42.67507 14.48914 37052 ft 447 kts 195°
2026-04-25 13:10 42.61521 14.46620 37051 ft 447 kts 195°
2026-04-25 13:10 42.55531 14.44329 37048 ft 447 kts 195°
2026-04-25 13:11 42.49541 14.42042 37050 ft 447 kts 195°
2026-04-25 13:11 42.43544 14.39758 37051 ft 448 kts 195°
2026-04-25 13:12 42.37586 14.37492 37051 ft 448 kts 195°
2026-04-25 13:12 42.32593 14.35596 37055 ft 448 kts 194°
2026-04-25 13:13 42.25561 14.32933 37053 ft 449 kts 194°
2026-04-25 13:13 42.19531 14.30654 37049 ft 450 kts 194°
2026-04-25 13:14 42.13507 14.28382 37053 ft 450 kts 194°
2026-04-25 13:14 42.07463 14.26106 37057 ft 450 kts 194°
2026-04-25 13:15 42.01427 14.23838 37059 ft 450 kts 194°
2026-04-25 13:15 41.95426 14.21588 37056 ft 450 kts 194°
2026-04-25 13:16 41.89390 14.19329 37063 ft 450 kts 194°
2026-04-25 13:16 41.83357 14.17075 37053 ft 450 kts 194°
2026-04-25 13:17 41.77325 14.14826 37058 ft 449 kts 194°
2026-04-25 13:17 41.71305 14.12586 37063 ft 449 kts 194°
2026-04-25 13:18 41.65287 14.10351 37060 ft 449 kts 194°
2026-04-25 13:18 41.59273 14.08123 37065 ft 448 kts 194°
2026-04-25 13:19 41.53263 14.05899 37073 ft 448 kts 194°
2026-04-25 13:19 41.48262 14.04052 37072 ft 448 kts 194°
2026-04-25 13:20 41.41235 14.01462 37070 ft 448 kts 194°
2026-04-25 13:20 41.35254 13.99262 37086 ft 448 kts 194°
2026-04-25 13:21 41.29234 13.97053 37086 ft 449 kts 194°
2026-04-25 13:21 41.23205 13.94844 37092 ft 449 kts 194°
2026-04-25 13:22 41.17181 13.92641 37105 ft 449 kts 194°
2026-04-25 13:23 41.08141 13.89343 37103 ft 449 kts 194°
2026-04-25 13:23 41.02107 13.87147 37099 ft 449 kts 194°
2026-04-25 13:24 40.96085 13.84960 37097 ft 449 kts 194°
2026-04-25 13:24 40.90064 13.82776 37101 ft 448 kts 194°
2026-04-25 13:25 40.84092 13.80615 37099 ft 448 kts 194°
2026-04-25 13:25 40.78067 13.78439 37098 ft 448 kts 194°
2026-04-25 13:26 40.72046 13.76268 37098 ft 448 kts 194°
2026-04-25 13:26 40.66028 13.74103 37099 ft 448 kts 194°
2026-04-25 13:27 40.60052 13.71956 37101 ft 448 kts 194°
2026-04-25 13:27 40.54036 13.69799 37100 ft 448 kts 194°
2026-04-25 13:28 40.48015 13.67645 37100 ft 448 kts 194°
2026-04-25 13:28 40.41992 13.65493 37107 ft 449 kts 194°
2026-04-25 13:29 40.35962 13.63343 37108 ft 449 kts 194°
2026-04-25 13:29 40.29954 13.61205 37108 ft 449 kts 194°
2026-04-25 13:30 40.20885 13.57986 37105 ft 450 kts 194°
2026-04-25 13:31 40.11804 13.54770 37111 ft 451 kts 194°
2026-04-25 13:31 40.05748 13.52631 37114 ft 451 kts 194°
2026-04-25 13:32 39.99676 13.50491 37114 ft 451 kts 194°
2026-04-25 13:32 39.93612 13.48356 37115 ft 452 kts 194°
2026-04-25 13:33 39.87575 13.46236 37116 ft 452 kts 194°
2026-04-25 13:33 39.81507 13.44108 37117 ft 452 kts 194°
2026-04-25 13:34 39.75431 13.41981 37117 ft 452 kts 194°
2026-04-25 13:34 39.69353 13.39857 37120 ft 452 kts 194°
2026-04-25 13:35 39.63272 13.37737 37121 ft 452 kts 194°
2026-04-25 13:35 39.57189 13.35619 37124 ft 452 kts 194°
2026-04-25 13:36 39.51105 13.33505 37121 ft 453 kts 194°
2026-04-25 13:36 39.45011 13.31392 37123 ft 453 kts 194°
2026-04-25 13:37 39.38964 13.29298 37127 ft 453 kts 194°
2026-04-25 13:37 39.32876 13.27194 37125 ft 453 kts 194°
2026-04-25 13:38 39.26784 13.25093 37125 ft 453 kts 194°
2026-04-25 13:38 39.20688 13.22993 37126 ft 453 kts 194°
2026-04-25 13:39 39.14598 13.20900 37128 ft 453 kts 194°
2026-04-25 13:39 39.08510 13.18811 37127 ft 453 kts 194°
2026-04-25 13:40 39.02430 13.16729 37129 ft 452 kts 194°
2026-04-25 13:40 38.96343 13.14648 37129 ft 452 kts 194°
2026-04-25 13:41 38.90294 13.12583 37128 ft 452 kts 194°
2026-04-25 13:41 38.84209 13.10510 37128 ft 452 kts 194°
2026-04-25 13:42 38.78131 13.08443 37127 ft 452 kts 194°
2026-04-25 13:42 38.72049 13.06378 37128 ft 452 kts 194°
2026-04-25 13:43 38.65974 13.04320 37127 ft 451 kts 194°
2026-04-25 13:43 38.59900 13.02265 37126 ft 451 kts 195°
2026-04-25 13:44 38.53825 13.00214 37126 ft 451 kts 195°
2026-04-25 13:44 38.47742 12.98163 37125 ft 451 kts 195°
2026-04-25 13:45 38.41707 12.96132 37119 ft 451 kts 195°
2026-04-25 13:45 38.35629 12.94090 37110 ft 451 kts 195°
2026-04-25 13:46 38.29552 12.92052 37111 ft 451 kts 195°
2026-04-25 13:46 38.23469 12.90016 37107 ft 452 kts 195°
2026-04-25 13:47 38.18412 12.88326 37108 ft 452 kts 195°
2026-04-25 13:47 38.12330 12.86296 37110 ft 452 kts 195°
2026-04-25 13:48 38.06244 12.84268 37113 ft 452 kts 195°
2026-04-25 13:48 38.00161 12.82245 37120 ft 453 kts 195°
2026-04-25 13:49 37.94051 12.80216 37116 ft 453 kts 195°
2026-04-25 13:49 37.87976 12.78203 37128 ft 454 kts 195°
2026-04-25 13:50 37.81862 12.76180 37121 ft 455 kts 195°
2026-04-25 13:50 37.75734 12.74156 37123 ft 455 kts 195°
2026-04-25 13:51 37.69604 12.72135 37120 ft 455 kts 195°
2026-04-25 13:51 37.63470 12.70116 37120 ft 455 kts 195°
2026-04-25 13:52 37.57333 12.68099 37118 ft 456 kts 195°
2026-04-25 13:52 37.51188 12.66083 37114 ft 456 kts 195°
2026-04-25 13:53 37.45047 12.64072 37119 ft 455 kts 195°
2026-04-25 13:53 37.38956 12.62080 37118 ft 455 kts 195°
2026-04-25 13:54 37.32822 12.60078 37119 ft 455 kts 195°
2026-04-25 13:54 37.26699 12.58082 37121 ft 454 kts 196°
2026-04-25 13:55 37.20581 12.56091 37124 ft 454 kts 196°
2026-04-25 13:55 37.14488 12.54001 37124 ft 453 kts 199°
2026-04-25 13:56 37.08492 12.51546 37124 ft 453 kts 200°
2026-04-25 13:56 37.02516 12.49026 37129 ft 453 kts 200°
2026-04-25 13:57 36.96529 12.46540 37128 ft 453 kts 200°
2026-04-25 13:57 36.90539 12.44087 37124 ft 453 kts 200°
2026-04-25 13:58 36.84574 12.41658 37124 ft 454 kts 200°
2026-04-25 13:58 36.78565 12.39215 37126 ft 454 kts 200°
2026-04-25 13:59 36.72554 12.36775 37123 ft 454 kts 200°
2026-04-25 13:59 36.66534 12.34334 37127 ft 455 kts 200°
2026-04-25 14:00 36.60504 12.31894 37132 ft 455 kts 200°
2026-04-25 14:00 36.54474 12.29457 37125 ft 455 kts 200°
2026-04-25 14:01 36.48443 12.27024 37134 ft 456 kts 201°
2026-04-25 14:01 36.42409 12.24594 37125 ft 456 kts 201°
2026-04-25 14:02 36.36371 12.22166 37136 ft 456 kts 201°
2026-04-25 14:02 36.30371 12.19758 37120 ft 456 kts 201°
2026-04-25 14:03 36.24322 12.17333 37123 ft 456 kts 201°
2026-04-25 14:03 36.18283 12.14917 37128 ft 456 kts 201°
2026-04-25 14:04 36.12238 12.12502 37130 ft 456 kts 201°
2026-04-25 14:04 36.06195 12.10092 37133 ft 456 kts 201°
2026-04-25 14:05 36.00158 12.07688 37131 ft 455 kts 201°
2026-04-25 14:05 35.94167 12.05306 37128 ft 455 kts 201°
2026-04-25 14:06 35.88144 12.02916 37131 ft 454 kts 201°
2026-04-25 14:06 35.82134 12.00534 37130 ft 454 kts 201°
2026-04-25 14:07 35.76118 11.98153 37130 ft 453 kts 201°
2026-04-25 14:07 35.70113 11.95781 37075 ft 454 kts 201°
2026-04-25 14:07 35.67087 11.94585 36547 ft 459 kts 201°
2026-04-25 14:08 35.64052 11.93388 35988 ft 457 kts 201°
2026-04-25 14:08 35.61023 11.92196 35357 ft 457 kts 201°
2026-04-25 14:08 35.57989 11.91002 34716 ft 458 kts 201°
2026-04-25 14:08 35.54946 11.89805 34057 ft 460 kts 201°
2026-04-25 14:09 35.51909 11.88612 33546 ft 456 kts 202°
2026-04-25 14:09 35.48897 11.87432 33030 ft 453 kts 202°
2026-04-25 14:09 35.45909 11.86261 32552 ft 449 kts 202°
2026-04-25 14:09 35.43942 11.85491 32242 ft 446 kts 202°
2026-04-25 14:10 35.40007 11.83951 31622 ft 442 kts 203°
2026-04-25 14:10 35.37097 11.82812 31175 ft 438 kts 203°
2026-04-25 14:10 35.34233 11.81692 30734 ft 435 kts 204°
2026-04-25 14:10 35.31356 11.80567 30289 ft 433 kts 204°
2026-04-25 14:11 35.28496 11.79449 29779 ft 430 kts 204°
2026-04-25 14:11 35.25655 11.78340 29284 ft 426 kts 204°
2026-04-25 14:11 35.22842 11.77243 28824 ft 422 kts 203°
2026-04-25 14:11 35.20054 11.76156 28355 ft 419 kts 203°
2026-04-25 14:12 35.17289 11.75079 27907 ft 415 kts 203°
2026-04-25 14:12 35.14553 11.74014 27456 ft 412 kts 203°
2026-04-25 14:12 35.11830 11.72955 27007 ft 409 kts 203°
2026-04-25 14:12 35.09127 11.71904 26571 ft 406 kts 203°
2026-04-25 14:13 35.06437 11.70858 26137 ft 404 kts 202°
2026-04-25 14:13 35.03769 11.69822 25700 ft 401 kts 202°
2026-04-25 14:13 35.01144 11.68804 25273 ft 399 kts 202°
2026-04-25 14:13 34.98509 11.67782 24841 ft 397 kts 202°
2026-04-25 14:14 34.95876 11.66761 24407 ft 396 kts 202°
2026-04-25 14:14 34.93250 11.65745 23973 ft 394 kts 202°
2026-04-25 14:14 34.90638 11.64734 23490 ft 393 kts 202°
2026-04-25 14:14 34.88030 11.63726 23016 ft 391 kts 202°
2026-04-25 14:15 34.85449 11.62729 22566 ft 388 kts 202°
2026-04-25 14:15 34.84611 11.62405 22419 ft 387 kts 201°
2026-04-25 14:15 34.80332 11.60755 21708 ft 383 kts 201°
2026-04-25 14:15 34.77802 11.59779 21285 ft 380 kts 201°
2026-04-25 14:16 34.75287 11.58810 20867 ft 378 kts 201°
2026-04-25 14:16 34.72791 11.57848 20457 ft 375 kts 201°
2026-04-25 14:16 34.70302 11.56891 20046 ft 373 kts 201°
2026-04-25 14:16 34.67865 11.55953 19641 ft 371 kts 201°
2026-04-25 14:17 34.65407 11.55007 19236 ft 370 kts 201°
2026-04-25 14:17 34.62959 11.54066 18827 ft 368 kts 201°
2026-04-25 14:17 34.60517 11.53128 18403 ft 368 kts 201°
2026-04-25 14:17 34.58082 11.52194 17948 ft 366 kts 201°
2026-04-25 14:18 34.55655 11.51264 17510 ft 364 kts 201°
2026-04-25 14:18 34.53306 11.50189 17092 ft 358 kts 210°
2026-04-25 14:18 34.51187 11.48652 16686 ft 352 kts 219°
2026-04-25 14:18 34.49348 11.46736 16301 ft 347 kts 226°
2026-04-25 14:19 34.47594 11.44734 15894 ft 344 kts 226°
2026-04-25 14:19 34.45866 11.42747 15495 ft 342 kts 226°
2026-04-25 14:19 34.44136 11.40768 15109 ft 340 kts 225°
2026-04-25 14:19 34.42411 11.38813 14718 ft 339 kts 225°
2026-04-25 14:20 34.40690 11.36873 14329 ft 337 kts 225°
2026-04-25 14:20 34.40133 11.36248 14210 ft 337 kts 224°
2026-04-25 14:20 34.37259 11.33024 13503 ft 335 kts 225°
2026-04-25 14:20 34.35687 11.30980 13266 ft 326 kts 232°
2026-04-25 14:21 34.34301 11.28843 12953 ft 322 kts 234°
2026-04-25 14:21 34.32972 11.26724 12604 ft 319 kts 234°
2026-04-25 14:21 34.31637 11.24584 12237 ft 318 kts 234°
2026-04-25 14:21 34.30304 11.22457 11870 ft 316 kts 234°
2026-04-25 14:22 34.28970 11.20342 11498 ft 315 kts 234°
2026-04-25 14:22 34.27639 11.18242 11129 ft 314 kts 234°
2026-04-25 14:22 34.26309 11.16151 10759 ft 313 kts 234°
2026-04-25 14:22 34.24982 11.14072 10502 ft 309 kts 234°
2026-04-25 14:23 34.23686 11.12045 10320 ft 300 kts 234°
2026-04-25 14:23 34.22437 11.10097 10200 ft 289 kts 234°
2026-04-25 14:23 34.21218 11.08196 9971 ft 285 kts 234°
2026-04-25 14:23 34.20005 11.06302 9658 ft 284 kts 234°
2026-04-25 14:24 34.18800 11.04423 9342 ft 283 kts 234°
2026-04-25 14:24 34.17597 11.02548 9024 ft 282 kts 234°
2026-04-25 14:24 34.16398 11.00680 8709 ft 281 kts 234°
2026-04-25 14:24 34.15204 10.98822 8388 ft 280 kts 234°
2026-04-25 14:25 34.14007 10.96960 8060 ft 280 kts 234°
2026-04-25 14:25 34.12828 10.95127 7725 ft 280 kts 234°
2026-04-25 14:25 34.11630 10.93265 7390 ft 281 kts 234°
2026-04-25 14:25 34.11227 10.92639 7286 ft 280 kts 234°
2026-04-25 14:26 34.09219 10.89523 6744 ft 280 kts 234°
2026-04-25 14:26 34.08034 10.87684 6359 ft 283 kts 234°
2026-04-25 14:26 34.06823 10.85806 6011 ft 283 kts 234°
2026-04-25 14:26 34.05616 10.83936 5684 ft 282 kts 234°
2026-04-25 14:27 34.04411 10.82071 5373 ft 280 kts 234°
2026-04-25 14:27 34.03216 10.80222 5071 ft 279 kts 233°
2026-04-25 14:27 34.02030 10.78387 4766 ft 277 kts 233°
2026-04-25 14:27 34.00846 10.76555 4454 ft 276 kts 233°
2026-04-25 14:28 33.99669 10.74737 4148 ft 275 kts 233°
2026-04-25 14:28 33.98499 10.72929 3846 ft 269 kts 233°
2026-04-25 14:28 33.97365 10.71177 3587 ft 261 kts 232°
2026-04-25 14:28 33.96275 10.69495 3487 ft 251 kts 232°
2026-04-25 14:29 33.95224 10.67873 3359 ft 238 kts 232°
2026-04-25 14:29 33.94232 10.66343 3226 ft 226 kts 232°
2026-04-25 14:29 33.93296 10.64901 3052 ft 216 kts 232°
2026-04-25 14:29 33.92379 10.63489 2872 ft 208 kts 232°
2026-04-25 14:30 33.91510 10.62151 2667 ft 199 kts 231°
2026-04-25 14:30 33.90729 10.59098 1986 ft 195 kts 264°
2026-04-25 14:30 33.90389 10.57581 1836 ft 187 kts 228°
2026-04-25 14:31 33.89281 10.56837 1892 ft 190 kts 184°
2026-04-25 14:31 33.87960 10.56950 1903 ft 192 kts 162°
2026-04-25 14:31 33.86811 10.57752 1726 ft 192 kts 133°
2026-04-25 14:31 33.86157 10.59047 1599 ft 172 kts 107°
2026-04-25 14:32 33.86120 10.60343 1585 ft 146 kts 74°
2026-04-25 14:32 33.86372 10.61551 1627 ft 157 kts 79°
2026-04-25 14:32 33.86610 10.62845 1595 ft 157 kts 78°
2026-04-25 14:32 33.86850 10.64124 1620 ft 156 kts 79°
2026-04-25 14:33 33.87094 10.65398 1615 ft 157 kts 80°
2026-04-25 14:33 33.87251 10.66687 1526 ft 157 kts 86°
2026-04-25 14:33 33.87309 10.68005 1333 ft 158 kts 88°
2026-04-25 14:33 33.87341 10.69324 1138 ft 158 kts 88°
2026-04-25 14:34 33.87372 10.70625 926 ft 153 kts 88°
2026-04-25 14:34 33.87402 10.71892 722 ft 146 kts 87°
2026-04-25 14:34 33.87434 10.73063 467 ft 135 kts 86°
2026-04-25 14:34 33.87465 10.74177 307 ft 135 kts 87°
2026-04-25 14:35 33.87487 10.75298 166 ft 132 kts 88°
2026-04-25 14:35 33.87512 10.76375 25 ft 123 kts 86°
2026-04-25 14:35 33.87534 10.77294 19 ft 93 kts 88°
2026-04-25 14:35 33.87551 10.77930 20 ft 59 kts 88°
2026-04-25 14:36 33.87560 10.78289 19 ft 36 kts 88°
2026-04-25 14:36 33.87564 10.78527 19 ft 18 kts 93°
2026-04-25 14:36 33.87501 10.78605 20 ft 7 kts 179°
2026-04-25 14:36 33.87455 10.78598 20 ft 7 kts 192°
2026-04-25 14:37 33.87408 10.78564 21 ft 11 kts 228°
2026-04-25 14:37 33.87398 10.78473 25 ft 11 kts 269°
2026-04-25 14:37 33.87396 10.78409 26 ft 13 kts 268°
2026-04-25 14:37 33.87393 10.78288 26 ft 16 kts 266°
2026-04-25 14:38 33.87398 10.78145 25 ft 18 kts 264°
2026-04-25 14:38 33.87394 10.77984 28 ft 21 kts 268°
2026-04-25 14:38 33.87389 10.77803 30 ft 23 kts 268°
2026-04-25 14:38 33.87383 10.77601 25 ft 24 kts 268°
2026-04-25 14:39 33.87379 10.77413 26 ft 22 kts 268°
2026-04-25 14:39 33.87370 10.77315 27 ft 0 kts 216°
2026-04-25 14:39 33.87344 10.77298 28 ft 6 kts 206°
2026-04-25 14:39 33.87299 10.77272 26 ft 8 kts 203°
2026-04-25 14:40 33.87237 10.77294 26 ft 12 kts 136°
2026-04-25 14:40 33.87211 10.77322 28 ft 3 kts 140°
2026-04-25 14:40 33.87202 10.77331 28 ft 0 kts 140°